[[{"header":{"parameterUnit":"m.s-1","parameterCategory":1,"la1":30.2991,"la2":30.254,"lo1":-89.0895,"lo2":-89.0444,"dy":0.0017,"dx":0.0017,"nx":28,"ny":28,"refTime":"2023-08-21T09:00:00:Z","depth":0,"parameterNumber":2,"parameterNumberName":"U-component_of_WINDS"},"data":[0,0,0,0,0,0,0,0,0,0,0,0,0,0,0,0,0,0,0,0,0,0,0,0,0,0,0,0,0,0,0,0,0,0,0,0,0,0,0,0,0,0,0,0,0,0,0,0,0,0,0,0,0,0,0,0,0,0,0.181,0.1812,0,0.1924,0.1925,0.1926,0.197,0.1969,0.1969,0.1969,0.2085,0.2088,0.2092,0,0,0,0,0,0,0,0,0,0,0,0,0,0.1629,0.1632,0.181,0.1812,0.1813,0.1923,0.1925,0.1926,0.197,0.1969,0.1969,0.1968,0.2084,0.2088,0.2092,0,0,0,0,0,0,0,0,0,0,0,0,0,0.1721,0.1633,0.181,0.1848,0.1852,0.1923,0.1925,0.1927,0.197,0.1969,0.1969,0.1968,0.2082,0.2087,0.2092,0.2134,0,0,0.2108,0.211,0,0,0,0,0,0,0,0,0.1716,0.1728,0.1841,0.1845,0.1851,0.1932,0.1904,0.1996,0.197,0.1925,0.1969,0.1968,0.2034,0.2043,0.2066,0.2139,0.2144,0.2108,0.2112,0.2114,0.2115,0,0,0,0,0,0,0,0.171,0.1723,0.1855,0.1843,0.1848,0.1858,0.1871,0.1921,0.1981,0.1929,0.1933,0.1945,0.2037,0.2061,0.2069,0.2146,0.2108,0.2113,0.2116,0.2118,0.2255,0.2255,0,0,0,0,0,0,0.1697,0.1718,0.1852,0.1859,0.1781,0.1862,0.1876,0.1906,0.1981,0.1992,0.1946,0.1947,0.2052,0.2063,0.2073,0.2124,0.2114,0.2119,0.2121,0.2254,0.2255,0.2256,0,0,0,0,0,0,0.1693,0.1709,0.1847,0.1789,0.1807,0.1866,0.1899,0.1909,0.1933,0.1993,0.2004,0.1959,0.2052,0.2066,0.2117,0.2129,0.2121,0.2125,0.2254,0.2254,0.2255,0.2228,0,0,0,0,0,0,0.1688,0.1707,0.1724,0.1789,0.181,0.189,0.19,0.1911,0.1941,0.1944,0.2009,0.2019,0.2053,0.211,0.2122,0.2136,0.2129,0.2253,0.2254,0.2255,0.2228,0.2228,0.2227,0,0,0,0,0,0.1681,0.1713,0.1725,0.1741,0.1833,0.1891,0.1903,0.1941,0.1942,0.1959,0.1997,0.2017,0.2125,0.2114,0.2129,0.2144,0.2252,0.2254,0.2255,0.2228,0.2228,0.2227,0,0,0,0,0,0,0.1649,0.1722,0.1736,0.179,0.1834,0.1898,0.1921,0.194,0.1985,0.1986,0.2031,0.2045,0.2092,0.2124,0.211,0.2186,0.219,0.2194,0.2165,0.2165,0.2164,0.2156,0.2134,0,0,0,0,0,0.1648,0.1689,0.1751,0.1792,0.1813,0.1863,0.189,0.1915,0.1962,0.1981,0.2023,0.2068,0.2112,0.214,0.2184,0.2232,0.2246,0.2249,0.2249,0.2248,0.2252,0.2277,0.2279,0.226,0.226,0.226,0,0,0.1647,0.1692,0.1715,0.1787,0.1824,0.1864,0.1879,0.1922,0.1952,0.1988,0.2039,0.207,0.2123,0.2172,0.2196,0.22,0.226,0.225,0.2249,0.2253,0.2278,0.228,0.2282,0.2261,0.226,0.226,0,0,0.1665,0.1704,0.1741,0.1777,0.1832,0.1864,0.1873,0.1934,0.1956,0.2007,0.2034,0.207,0.2145,0.2181,0.2208,0.2235,0.2254,0.2248,0.2247,0.227,0.2272,0.2273,0.2281,0.2284,0.2251,0.2251,0.2251,0,0.1657,0.1719,0.1758,0.1799,0.1829,0.1861,0.1898,0.1931,0.1998,0.2017,0.2019,0.2112,0.215,0.2206,0.2212,0.2234,0.2244,0.2242,0.2269,0.227,0.2272,0.2281,0.2284,0.225,0.225,0.225,0.225,0,0.1705,0.1748,0.1771,0.1833,0.1865,0.1904,0.1947,0.1975,0.1996,0.2028,0.2078,0.2123,0.2176,0.2191,0.2213,0.225,0.225,0.226,0.2265,0.2272,0.2281,0.2284,0.2248,0.2248,0.2249,0.2249,0,0,0.1709,0.1789,0.1797,0.1824,0.1885,0.1919,0.1957,0.2008,0.2029,0.2073,0.2106,0.2166,0.2175,0.2206,0.2232,0.2253,0.2268,0.226,0.2262,0.2259,0.2309,0.2301,0.2304,0.228,0.2281,0.2282,0.2304,0,0.1735,0.1806,0.1841,0.1896,0.1935,0.1964,0.1998,0.2038,0.2067,0.2103,0.2135,0.2177,0.2186,0.2204,0.2226,0.2262,0.2279,0.226,0.231,0.2311,0.2296,0.2309,0.2301,0.232,0.2308,0.2308,0.2309,0,0.1775,0.1817,0.1876,0.193,0.1947,0.1977,0.2024,0.2058,0.2103,0.2122,0.2155,0.218,0.2219,0.222,0.2274,0.2261,0.2283,0.2303,0.2304,0.2311,0.2311,0.2315,0.2327,0.233,0.2314,0.2314,0.2313,0,0.177,0.1841,0.1885,0.1908,0.1972,0.1991,0.2018,0.2063,0.209,0.213,0.2148,0.2193,0.2217,0.225,0.2285,0.2283,0.2335,0.234,0.2352,0.2351,0.2363,0.2362,0.2379,0.2377,0.2377,0.2377,0.2377,0,0.1795,0.183,0.1884,0.1911,0.1949,0.1987,0.2024,0.2054,0.2092,0.2124,0.2152,0.2182,0.2226,0.226,0.2288,0.2327,0.2338,0.2354,0.2361,0.2352,0.235,0.2368,0.2367,0.2377,0.2377,0.2377,0.2377,0,0.1797,0.1834,0.1884,0.1939,0.1954,0.198,0.2026,0.2053,0.2082,0.2122,0.2133,0.2179,0.2221,0.2258,0.2314,0.2332,0.2372,0.2381,0.2357,0.236,0.237,0.2369,0.24,0.2405,0.2399,0.2399,0.2399,0,0.181,0.1838,0.1895,0.1918,0.1945,0.1982,0.2009,0.2046,0.2073,0.2124,0.2143,0.2186,0.2223,0.2287,0.2325,0.2367,0.2377,0.2384,0.2383,0.2372,0.2376,0.2374,0.2376,0.2384,0.2384,0.2384,0.2384,0,0.183,0.1846,0.1884,0.1927,0.1958,0.1994,0.2031,0.2049,0.2092,0.212,0.2163,0.2191,0.2246,0.2288,0.2333,0.236,0.2379,0.2383,0.2388,0.238,0.2364,0.2371,0.2355,0.2383,0.2383,0.2383,0.2383,0.2383,0.1837,0.1862,0.1905,0.1945,0.1976,0.2009,0.2036,0.2068,0.2104,0.2151,0.2171,0.2213,0.2254,0.2316,0.2342,0.2375,0.2379,0.2387,0.2388,0.239,0.2387,0.2358,0.2384,0.2384,0.2384,0.2384,0.2384,0,0.1857,0.1886,0.1922,0.1972,0.2003,0.2017,0.2058,0.2082,0.2119,0.2156,0.2191,0.2237,0.2277,0.2317,0.2358,0.2377,0.2386,0.2386,0.2385,0.2391,0.2382,0.2373,0.2378,0.2378,0.2378,0.2378,0.2378,0.2378,0.1871,0.1912,0.1933,0.1989,0.2018,0.2059,0.2081,0.211,0.214,0.2191,0.2224,0.2249,0.2286,0.233,0.2366,0.2376,0.239,0.2388,0.24,0.2392,0.2392,0.2392,0.2384,0.2391,0.2391,0.2407,0.2407,0.2407]},{"header":{"parameterUnit":"m.s-1","parameterCategory":1,"la1":30.2991,"la2":30.254,"lo1":-89.0895,"lo2":-89.0444,"dy":0.0017,"dx":0.0017,"nx":28,"ny":28,"refTime":"2023-08-21T09:00:00:Z","depth":0,"parameterNumber":3,"parameterNumberName":"V-component_of_WINDS"},"data":[0,0,0,0,0,0,0,0,0,0,0,0,0,0,0,0,0,0,0,0,0,0,0,0,0,0,0,0,0,0,0,0,0,0,0,0,0,0,0,0,0,0,0,0,0,0,0,0,0,0,0,0,0,0,0,0,0,0,3.5015,3.5015,0,3.5004,3.5004,3.5004,3.5019,3.502,3.5021,3.5021,3.5006,3.5005,3.5004,0,0,0,0,0,0,0,0,0,0,0,0,0,3.5046,3.5046,3.5015,3.5015,3.5015,3.5004,3.5004,3.5004,3.5019,3.502,3.5021,3.5021,3.5007,3.5006,3.5004,0,0,0,0,0,0,0,0,0,0,0,0,0,3.5034,3.5045,3.5015,3.5021,3.5022,3.5004,3.5004,3.5004,3.5019,3.502,3.5021,3.5022,3.5007,3.5006,3.5004,3.4979,0,0,3.5,3.4999,0,0,0,0,0,0,0,0,3.5034,3.5032,3.5021,3.5021,3.5021,3.5014,3.5009,3.4995,3.5019,3.502,3.5021,3.5022,3.5008,3.5007,3.5002,3.4978,3.4977,3.5,3.4999,3.4998,3.4998,0,0,0,0,0,0,0,3.5035,3.5033,3.5011,3.502,3.5021,3.5024,3.5023,3.5007,3.5009,3.502,3.5021,3.502,3.5008,3.5004,3.5002,3.4977,3.5,3.4999,3.4998,3.4997,3.4928,3.4927,0,0,0,0,0,0,3.5036,3.5034,3.5011,3.501,3.503,3.5022,3.5021,3.5015,3.5009,3.5009,3.5019,3.5021,3.5006,3.5004,3.5002,3.4969,3.4998,3.4997,3.4996,3.4929,3.4928,3.4927,0,0,0,0,0,0,3.5036,3.5034,3.5011,3.5022,3.502,3.5021,3.5014,3.5015,3.501,3.5009,3.5009,3.5014,3.5006,3.5004,3.4984,3.4969,3.4997,3.4995,3.493,3.4929,3.4927,3.4905,0,0,0,0,0,0,3.5037,3.5034,3.5025,3.5022,3.5019,3.4995,3.5013,3.5014,3.5008,3.501,3.5004,3.5004,3.5007,3.4986,3.4982,3.4967,3.4994,3.4932,3.493,3.4928,3.4907,3.4903,3.4899,0,0,0,0,0,3.5038,3.5019,3.5024,3.5022,3.5008,3.4994,3.4992,3.4997,3.5007,3.4997,3.4996,3.5004,3.4972,3.4984,3.498,3.4964,3.4932,3.493,3.4928,3.4909,3.4904,3.4899,0,0,0,0,0,0,3.5019,3.5019,3.5025,3.5004,3.4999,3.4997,3.4985,3.4991,3.4982,3.4984,3.4989,3.4988,3.4966,3.4964,3.4977,3.4938,3.4953,3.495,3.494,3.4935,3.4932,3.4931,3.4993,0,0,0,0,0,3.5013,3.5003,3.5002,3.4984,3.4981,3.4983,3.4977,3.4981,3.4976,3.4973,3.4971,3.4964,3.4952,3.4944,3.4933,3.4907,3.4905,3.4895,3.4891,3.4888,3.4884,3.4867,3.4862,3.4919,3.4919,3.4919,0,0,3.4999,3.4998,3.4991,3.498,3.4977,3.4964,3.4981,3.4968,3.4958,3.4971,3.4951,3.4949,3.4942,3.4919,3.4908,3.4916,3.4868,3.4885,3.4882,3.488,3.4864,3.4859,3.4854,3.4918,3.4918,3.4918,0,0,3.4967,3.4966,3.4949,3.4946,3.494,3.4942,3.4938,3.4934,3.4934,3.4915,3.4923,3.4911,3.4891,3.4885,3.4879,3.4844,3.485,3.484,3.4819,3.4803,3.4798,3.4794,3.4779,3.4773,3.4837,3.4837,3.4837,0,3.495,3.4933,3.494,3.4925,3.4919,3.4932,3.4914,3.4909,3.49,3.4895,3.4905,3.4878,3.4874,3.4848,3.4839,3.4835,3.4829,3.484,3.4799,3.4795,3.4791,3.4776,3.4771,3.4836,3.4836,3.4836,3.4836,0,3.4911,3.4899,3.4886,3.4877,3.487,3.4854,3.4857,3.4849,3.4853,3.4853,3.4832,3.4828,3.4816,3.481,3.4815,3.4784,3.4788,3.4798,3.4813,3.4784,3.477,3.4765,3.4834,3.4834,3.4835,3.4835,0,0,3.4865,3.4861,3.4856,3.4851,3.4846,3.4836,3.482,3.4808,3.4799,3.4793,3.4778,3.476,3.4768,3.4762,3.4765,3.4752,3.472,3.4763,3.4762,3.4752,3.4682,3.4673,3.4667,3.4725,3.4724,3.4723,3.4682,0,3.4831,3.4804,3.481,3.4782,3.4769,3.4781,3.4766,3.476,3.476,3.4748,3.4747,3.4733,3.4747,3.4742,3.4729,3.4727,3.4706,3.473,3.4708,3.4707,3.4707,3.466,3.465,3.4612,3.4677,3.4676,3.4676,0,3.4788,3.4779,3.4751,3.4746,3.4741,3.4728,3.4717,3.4706,3.4699,3.4699,3.4691,3.4697,3.4679,3.4696,3.4669,3.4686,3.4677,3.4674,3.4673,3.4669,3.4688,3.4651,3.46,3.4593,3.4668,3.4668,3.4669,0,3.4753,3.4736,3.4716,3.4712,3.4707,3.4697,3.4694,3.4688,3.468,3.467,3.4664,3.4652,3.4645,3.4634,3.4635,3.4649,3.4607,3.4625,3.4604,3.4604,3.4593,3.4593,3.4536,3.4592,3.4592,3.4592,3.4592,0,3.4713,3.4694,3.47,3.4687,3.4666,3.4673,3.4651,3.4649,3.4643,3.4629,3.4639,3.4625,3.4629,3.4614,3.4615,3.4591,3.4588,3.4586,3.4586,3.4584,3.4583,3.4576,3.4577,3.4591,3.4591,3.4591,3.4592,0,3.4671,3.4674,3.4652,3.465,3.4648,3.4632,3.4629,3.4616,3.4616,3.4598,3.4594,3.4594,3.4577,3.4578,3.4559,3.456,3.4529,3.4534,3.4531,3.4531,3.4509,3.451,3.4442,3.4432,3.4498,3.4498,3.4497,0,3.4643,3.4629,3.4625,3.4616,3.4613,3.4599,3.4591,3.4597,3.4588,3.4578,3.4565,3.455,3.4538,3.451,3.4507,3.4492,3.4494,3.4472,3.4492,3.4489,3.449,3.4489,3.4486,3.4467,3.4466,3.4465,3.4465,0,3.4593,3.4596,3.4584,3.4573,3.4563,3.4555,3.4547,3.4539,3.4543,3.4532,3.4516,3.4506,3.4487,3.447,3.4456,3.4451,3.4457,3.4459,3.4453,3.4448,3.4446,3.4444,3.4517,3.446,3.446,3.4461,3.4461,3.4461,3.4555,3.4542,3.4537,3.4523,3.4518,3.451,3.4497,3.4496,3.4483,3.4468,3.4472,3.4453,3.4444,3.4425,3.4419,3.4403,3.441,3.4402,3.4399,3.4396,3.4392,3.4452,3.44,3.44,3.4401,3.4401,3.4401,0,3.4503,3.45,3.4488,3.4477,3.4465,3.4475,3.4466,3.4456,3.4439,3.4431,3.4419,3.4398,3.4382,3.4378,3.4361,3.4349,3.4351,3.4344,3.4343,3.4341,3.4388,3.4393,3.4342,3.4342,3.4342,3.4342,3.4342,3.4342,3.4474,3.4452,3.4454,3.4428,3.4425,3.4407,3.44,3.4392,3.4386,3.4363,3.435,3.4348,3.4341,3.4324,3.4308,3.4307,3.4299,3.429,3.429,3.4333,3.4338,3.4344,3.4349,3.4289,3.4289,3.4244,3.4243,3.4243]}]]